Volver al catálogo

FREGAT DEB

TANK

ActivoUNKNOWN
NORAD 37756·DEBRIS·🇷🇺 Russia

Lanzado Jul 18, 2011 desde Baikonur Cosmodrome

Loading…

Próximos Pases (próximas 24 horas)

TLE

ActualizadoSource: Space-Track

Época: Sep 13, 2026, 22:16 UTC

1 37756U 11037B   26256.92799471  .00001411  00000-0  30554-3 0  9996
2 37756  51.4341 229.4026 1803526 191.0137 164.5515 11.48241756625425

Sigue FREGAT DEB en tiempo real con AllMySat

Download on the App Store